Weather History for KSLH - November, 2012

Change the Weather History Date:

Saturday, November 3, 2012

  Actual Average (KPLN) Record (KPLN)
Temperature  
Mean Temperature 32 °F -  
Max Temperature 34 °F 47 °F 71 °F (1961)
Min Temperature 31 °F 32 °F 9 °F (1989)
Degree Days  
Heating Degree Days 32    
Moisture  
Dew Point 26 °F    
Average Humidity 75    
Maximum Humidity 83    
Minimum Humidity 71    
Precipitation  
Precipitation 0.00 in - - ()
Sea Level Pressure  
Sea Level Pressure 30.19 in    
Wind  
Wind Speed 8 mph (NNW)    
Max Wind Speed 13 mph    
Max Gust Speed 17 mph    
Visibility 10 miles    
Events      
Averages and records for this station are not official NWS values.
T = Trace of Precipitation, MM = Missing Value Source: NWS Daily Summary

Daily Weather History Graph

Daily Weather History Graph

Search for Another Location

Airport or City:

Trip Planner

Search our weather history database for the weather conditions in past years. The results will help you decide how hot, cold, wet, or windy it might be!

Date:

Astronomy

Nov. 03, 2012 Rise Set
Actual Time 8:21 AM EDT 6:21 PM EDT
Civil Twilight 7:50 AM EDT 6:52 PM EDT
Nautical Twilight 7:14 AM EDT 7:27 PM EDT
Astronomical Twilight 6:40 AM EDT 8:02 PM EDT
Moon 9:56 PM EDT (11/3) 12:30 PM EDT (11/3)
Length of Visible Light 11h 02m
Length of Day
9h 59m
Waning Gibbous, 80% of the Moon is Illuminated
Nov 3
Waning Gibbous
Nov 6
Last Quarter
Nov 13
New
Nov 20
First Quarter
Nov 28
Full

Hourly Weather History & Observations

Time (EDT) Temp. Windchill Dew Point Humidity Pressure Visibility Wind Dir Wind Speed Gust Speed Precip Events Conditions
12:16 AM 34.3 °F 25.5 °F 26.8 °F 74% 30.12 in 10.0 mi North 12.7 mph 17.3 mph N/A   Overcast
12:35 AM 34.0 °F 26.0 °F 26.1 °F 73% 30.12 in 10.0 mi North 10.4 mph - N/A   Overcast
12:55 AM 33.8 °F 24.8 °F 25.7 °F 72% 30.12 in 10.0 mi North 12.7 mph 16.1 mph N/A   Overcast
1:15 AM 33.8 °F 27.0 °F 25.5 °F 72% 30.13 in 10.0 mi North 8.1 mph - N/A   Overcast
1:35 AM 33.6 °F 26.8 °F 25.5 °F 72% 30.13 in 10.0 mi North 8.1 mph - N/A   Overcast
1:55 AM 33.1 °F 26.1 °F 25.3 °F 73% 30.13 in 10.0 mi North 8.1 mph - N/A   Overcast
2:15 AM 32.7 °F 25.0 °F 25.0 °F 73% 30.14 in 10.0 mi North 9.2 mph - N/A   Mostly Cloudy
2:35 AM 32.4 °F 24.6 °F 24.8 °F 74% 30.14 in 10.0 mi North 9.2 mph - N/A   Mostly Cloudy
3:15 AM 32.9 °F 25.9 °F 25.5 °F 74% 30.15 in 10.0 mi NNW 8.1 mph - N/A   Overcast
3:35 AM 32.9 °F 25.3 °F 25.7 °F 75% 30.15 in 10.0 mi North 9.2 mph - N/A   Overcast
3:55 AM 32.9 °F 24.7 °F 26.2 °F 76% 30.15 in 10.0 mi North 10.4 mph - N/A   Overcast
4:15 AM 32.9 °F 25.3 °F 26.4 °F 77% 30.15 in 10.0 mi North 9.2 mph - N/A   Overcast
4:35 AM 32.5 °F 25.5 °F 26.2 °F 78% 30.15 in 10.0 mi North 8.1 mph - N/A   Overcast
4:55 AM 32.7 °F 25.7 °F 26.2 °F 77% 30.15 in 10.0 mi North 8.1 mph - N/A   Overcast
5:15 AM 32.7 °F 28.3 °F 26.6 °F 78% 30.16 in 10.0 mi NNW 4.6 mph - N/A   Overcast
5:35 AM 32.4 °F 27.9 °F 27.5 °F 82% 30.16 in 5.0 mi NNW 4.6 mph - N/A   Haze
5:55 AM 32.4 °F 25.3 °F 27.1 °F 81% 30.16 in 7.0 mi NNW 8.1 mph - N/A   Overcast
6:15 AM 32.2 °F 24.4 °F 27.5 °F 83% 30.17 in 10.0 mi North 9.2 mph - N/A   Overcast
6:36 AM 32.5 °F 26.2 °F 25.7 °F 76% 30.17 in 10.0 mi North 6.9 mph - N/A   Overcast
6:55 AM 32.2 °F 25.0 °F 26.4 °F 79% 30.18 in 10.0 mi North 8.1 mph - N/A   Overcast
7:15 AM 32.0 °F 23.6 °F 26.1 °F 79% 30.18 in 10.0 mi North 10.4 mph - N/A   Overcast
7:36 AM 32.0 °F 26.4 °F 25.2 °F 76% 30.19 in 10.0 mi North 5.8 mph - N/A   Overcast
7:55 AM 32.0 °F 26.4 °F 25.7 °F 78% 30.19 in 10.0 mi North 5.8 mph - N/A   Overcast
8:15 AM 32.0 °F 24.8 °F 25.5 °F 77% 30.19 in 10.0 mi North 8.1 mph - N/A   Overcast
8:35 AM 32.0 °F 23.6 °F 25.0 °F 75% 30.19 in 10.0 mi North 10.4 mph - N/A   Overcast
8:55 AM 31.6 °F 24.4 °F 24.6 °F 75% 30.20 in 10.0 mi North 8.1 mph - N/A   Overcast
9:15 AM 31.1 °F 22.4 °F 23.9 °F 75% 30.20 in 10.0 mi North 10.4 mph 17.3 mph N/A   Overcast
9:35 AM 31.1 °F 23.7 °F 24.1 °F 75% 30.21 in 10.0 mi North 8.1 mph 16.1 mph N/A   Overcast
9:55 AM 31.3 °F 23.3 °F 23.9 °F 74% 30.21 in 10.0 mi NNE 9.2 mph - N/A   Overcast
10:16 AM 31.6 °F 25.1 °F 24.4 °F 75% 30.21 in 10.0 mi North 6.9 mph - N/A   Overcast
10:55 AM 31.6 °F 24.4 °F 24.1 °F 74% 30.22 in 10.0 mi North 8.1 mph - N/A   Overcast
11:15 AM 31.6 °F 25.1 °F 24.4 °F 75% 30.22 in 10.0 mi NNE 6.9 mph - N/A   Overcast
11:35 AM 31.8 °F 27.3 °F 24.8 °F 75% 30.21 in 10.0 mi North 4.6 mph - N/A   Overcast
11:55 AM 32.0 °F 28.7 °F 25.2 °F 76% 30.22 in 10.0 mi NNW 3.5 mph - N/A   Overcast
12:15 PM 32.0 °F 27.5 °F 25.2 °F 76% 30.21 in 10.0 mi North 4.6 mph - N/A   Overcast
12:36 PM 32.0 °F 24.8 °F 25.2 °F 76% 30.21 in 10.0 mi North 8.1 mph - N/A   Overcast
12:55 PM 32.5 °F 27.1 °F 25.5 °F 75% 30.21 in 10.0 mi North 5.8 mph - N/A   Overcast
1:15 PM 32.9 °F 26.7 °F 25.5 °F 74% 30.21 in 10.0 mi North 6.9 mph - N/A   Overcast
1:36 PM 32.9 °F 25.3 °F 25.2 °F 73% 30.21 in 10.0 mi North 9.2 mph - N/A   Overcast
1:55 PM 33.1 °F 27.7 °F 25.0 °F 72% 30.21 in 10.0 mi WNW 5.8 mph - N/A   Overcast
2:15 PM 33.4 °F 28.1 °F 25.2 °F 72% 30.21 in 10.0 mi NNW 5.8 mph - N/A   Overcast
2:35 PM 33.1 °F 27.7 °F 25.2 °F 73% 30.20 in 10.0 mi North 5.8 mph - N/A   Overcast
2:55 PM 34.0 °F 29.8 °F 25.9 °F 72% 30.20 in 10.0 mi North 4.6 mph - N/A   Overcast
3:15 PM 34.7 °F 28.8 °F 26.4 °F 72% 30.19 in 10.0 mi North 6.9 mph - N/A   Overcast
3:35 PM 34.2 °F 31.2 °F 26.1 °F 72% 30.20 in 10.0 mi NNW 3.5 mph - N/A   Overcast
3:55 PM 34.0 °F 31.0 °F 25.9 °F 72% 30.20 in 10.0 mi NNW 3.5 mph - N/A   Overcast
4:16 PM 34.7 °F 28.1 °F 26.2 °F 71% 30.20 in 10.0 mi North 8.1 mph - N/A   Overcast
4:35 PM 34.7 °F 28.8 °F 26.4 °F 72% 30.21 in 10.0 mi NW 6.9 mph - N/A   Overcast
4:55 PM 34.9 °F 29.9 °F 26.6 °F 72% 30.20 in 10.0 mi NW 5.8 mph - N/A   Overcast
5:15 PM 34.7 °F 28.8 °F 26.4 °F 72% 30.20 in 10.0 mi West 6.9 mph - N/A   Overcast
5:35 PM 34.3 °F 30.2 °F 26.6 °F 73% 30.21 in 10.0 mi West 4.6 mph - N/A   Overcast
5:55 PM 34.3 °F 30.2 °F 26.4 °F 73% 30.21 in 10.0 mi WNW 4.6 mph - N/A   Overcast
6:15 PM 34.2 °F 31.2 °F 26.2 °F 73% 30.21 in 10.0 mi West 3.5 mph - N/A   Overcast
6:35 PM 34.0 °F 29.8 °F 26.6 °F 74% 30.21 in 10.0 mi WNW 4.6 mph - N/A   Overcast
6:55 PM 34.2 °F 30.0 °F 26.6 °F 74% 30.21 in 10.0 mi WNW 4.6 mph - N/A   Overcast
7:15 PM 34.0 °F 29.8 °F 27.0 °F 75% 30.20 in 10.0 mi NNW 4.6 mph - N/A   Overcast
7:35 PM 34.2 °F 28.2 °F 27.5 °F 77% 30.20 in 10.0 mi NNW 6.9 mph - N/A   Overcast
7:55 PM 33.8 °F 27.0 °F 26.4 °F 74% 30.21 in 10.0 mi NNW 8.1 mph - N/A   Overcast
8:15 PM 34.2 °F 27.5 °F 26.6 °F 74% 30.21 in 10.0 mi NNW 8.1 mph - N/A   Overcast
8:36 PM 34.7 °F 28.1 °F 27.1 °F 74% 30.21 in 10.0 mi NNW 8.1 mph - N/A   Overcast
8:55 PM 34.7 °F 29.6 °F 26.8 °F 73% 30.21 in 10.0 mi North 5.8 mph - N/A   Overcast
9:15 PM 34.7 °F 29.6 °F 27.5 °F 75% 30.21 in 10.0 mi NNW 5.8 mph - N/A   Overcast
9:36 PM 34.7 °F 29.6 °F 27.5 °F 75% 30.21 in 10.0 mi NNW 5.8 mph - N/A   Overcast
9:55 PM 34.7 °F 30.6 °F 27.5 °F 75% 30.21 in 10.0 mi NNW 4.6 mph - N/A   Overcast
10:15 PM 34.7 °F 28.8 °F 27.9 °F 76% 30.21 in 10.0 mi NNW 6.9 mph - N/A   Overcast
10:35 PM 33.8 °F 30.8 °F 26.2 °F 74% 30.20 in 10.0 mi NNW 3.5 mph - N/A   Overcast
10:55 PM 33.1 °F - 26.2 °F 76% 30.20 in 10.0 mi Calm Calm - N/A   Mostly Cloudy
11:15 PM 33.3 °F 30.2 °F 27.1 °F 78% 30.20 in 10.0 mi North 3.5 mph - N/A   Mostly Cloudy
11:35 PM 33.1 °F - 27.0 °F 78% 30.20 in 10.0 mi Calm Calm - N/A   Mostly Cloudy
11:55 PM 33.3 °F - 27.5 °F 79% 30.20 in 10.0 mi Calm Calm - N/A   Mostly Cloudy